Terminal Aerodrome Forecast
Issued by NWS Pendleton, OR

Home | Current Version | Previous Version | Text Only | Print | Product List | Glossary On
Versions: 1 2 3 4 5 6 7 8 9 10 11 12 13 14
000
FTUS46 KPDT 032320
TAFPDT
TAF
KPDT 032320Z 0400/0424 VRB05KT P6SM SKC
     FM040600 14006KT P6SM SKC
     FM041500 15006KT P6SM SKC
     FM041900 29010KT P6SM FEW080 SCT200=

USA.gov is the U.S. government's official web portal to all federal, state and local government web resources and services.